Location: Caltech
(34.1382°N, 118.1253°W)
Time: 18:00:57
(UTC-08:00)

SEDSat Delta rocket - Visible Passes

Search period start: 22 November 2014 00:00
Search period end: 02 December 2014 00:00
Orbit: 534 x 1009 km, 31.4° (Epoch: 21 November)

Date Brightness Start Highest point End Pass type
(mag) Time Alt. Az. Time Alt. Az. Time Alt. Az.
22 Nov 5.8 05:35:14 10° SSE 05:36:14 11° SSE 05:37:14 10° SE visible
24 Nov 4.7 06:00:12 10° SW 06:03:44 27° SSE 06:07:11 10° ESE visible
25 Nov 4.8 05:21:13 10° SW 05:24:41 25° SSE 05:28:02 10° ESE visible
26 Nov 4.9 04:43:35 16° SSW 04:45:38 23° SSE 04:48:53 10° ESE visible
27 Nov 5.1 04:07:05 20° SSE 04:07:05 20° SSE 04:09:45 10° ESE visible
27 Nov 3.6 05:48:15 10° WSW 05:52:22 47° S 05:56:16 10° E visible
28 Nov 6.1 03:30:29 11° ESE 03:30:29 11° ESE 03:30:36 10° ESE visible
28 Nov 3.7 05:10:43 21° SW 05:13:18 45° SSE 05:17:14 10° E visible
29 Nov 3.8 04:34:00 42° S 04:34:12 42° SSE 04:38:12 10° E visible
30 Nov 5.1 03:57:12 24° ESE 03:57:12 24° ESE 03:59:11 10° E visible
30 Nov 3.2 05:37:26 15° WSW 05:41:05 61° S 05:45:08 10° E visible
01 Dec 3.2 05:00:34 40° WSW 05:01:58 61° S 05:06:08 10° E visible
